Time,TemperatureF,DewpointF,PressureIn,WindDirection,WindDirectionDegrees,WindSpeedMPH,WindSpeedGustMPH,Humidity,HourlyPrecipIn,Conditions,Clouds,dailyrainin,SoftwareType,DateUTC
2013-02-06 00:00:00,23.7,18.7,29.91,SE,142,1.0,2.0,81,0.00,,,0.00,WUHU216DAVISVP2,2013-02-06 05:00:00,
2013-02-06 00:05:00,23.8,18.8,29.91,SE,141,0.0,1.0,81,0.00,,,0.00,WUHU216DAVISVP2,2013-02-06 05:05:00,
2013-02-06 00:10:00,23.8,19.1,29.91,SE,135,0.0,1.0,82,0.00,,,0.00,WUHU216DAVISVP2,2013-02-06 05:10:00,
2013-02-06 00:15:00,23.8,19.1,29.91,SSE,148,0.0,1.0,82,0.00,,,0.00,WUHU216DAVISVP2,2013-02-06 05:15:00,
2013-02-06 00:20:00,23.9,19.5,29.91,SSE,148,0.0,1.0,83,0.00,,,0.00,WUHU216DAVISVP2,2013-02-06 05:20:00,
2013-02-06 00:25:00,23.9,19.5,29.92,SSE,148,0.0,1.0,83,0.00,,,0.00,WUHU216DAVISVP2,2013-02-06 05:25:00,
2013-02-06 00:30:00,23.9,19.5,29.92,ESE,112,0.0,1.0,83,0.00,,,0.00,WUHU216DAVISVP2,2013-02-06 05:30:00,
2013-02-06 00:35:00,23.8,19.4,29.92,ESE,112,0.0,1.0,83,0.00,,,0.00,WUHU216DAVISVP2,2013-02-06 05:35:00,
2013-02-06 00:40:00,23.8,19.6,29.92,ESE,112,0.0,1.0,84,0.00,,,0.00,WUHU216DAVISVP2,2013-02-06 05:40:00,
2013-02-06 00:45:00,23.9,19.7,29.92,ESE,111,0.0,1.0,84,0.00,,,0.00,WUHU216DAVISVP2,2013-02-06 05:45:00,
2013-02-06 00:50:00,23.8,19.7,29.92,ESE,112,0.0,1.0,84,0.00,,,0.00,WUHU216DAVISVP2,2013-02-06 05:50:00,
2013-02-06 00:55:00,23.8,19.9,29.92,ESE,111,0.0,1.0,85,0.00,,,0.00,WUHU216DAVISVP2,2013-02-06 05:55:00,
2013-02-06 01:01:00,23.9,20.0,29.92,ESE,111,0.0,1.0,85,0.00,,,0.00,WUHU216DAVISVP2,2013-02-06 06:01:00,
2013-02-06 01:06:00,24.2,20.3,29.92,ESE,111,0.0,0.0,85,0.00,,,0.00,WUHU216DAVISVP2,2013-02-06 06:06:00,
2013-02-06 01:11:00,24.4,20.5,29.92,SW,228,0.0,1.0,85,0.00,,,0.00,WUHU216DAVISVP2,2013-02-06 06:11:00,
2013-02-06 01:16:00,24.8,20.6,29.92,SSE,148,1.0,1.0,84,0.00,,,0.00,WUHU216DAVISVP2,2013-02-06 06:16:00,
2013-02-06 01:21:00,25.3,20.8,29.91,SW,230,1.0,2.0,83,0.00,,,0.00,WUHU216DAVISVP2,2013-02-06 06:21:00,
2013-02-06 01:26:00,25.7,21.0,29.92,WSW,250,0.0,2.0,82,0.00,,,0.00,WUHU216DAVISVP2,2013-02-06 06:26:00,
2013-02-06 01:31:00,26.1,20.8,29.92,SSW,203,1.0,3.0,80,0.00,,,0.00,WUHU216DAVISVP2,2013-02-06 06:31:00,
2013-02-06 01:36:00,26.5,20.9,29.91,SSW,207,1.0,4.0,79,0.00,,,0.00,WUHU216DAVISVP2,2013-02-06 06:36:00,
2013-02-06 01:41:00,26.9,21.0,29.92,SW,218,1.0,4.0,78,0.00,,,0.00,WUHU216DAVISVP2,2013-02-06 06:41:00,
2013-02-06 01:46:00,27.3,21.1,29.92,West,273,1.0,5.0,77,0.00,,,0.00,WUHU216DAVISVP2,2013-02-06 06:46:00,
2013-02-06 01:51:00,27.5,21.0,29.92,WSW,239,2.0,5.0,76,0.00,,,0.00,WUHU216DAVISVP2,2013-02-06 06:51:00,
2013-02-06 01:56:00,27.7,20.8,29.92,WSW,240,3.0,7.0,75,0.00,,,0.00,WUHU216DAVISVP2,2013-02-06 06:56:00,
2013-02-06 02:01:00,27.9,21.0,29.92,WSW,250,1.0,7.0,75,0.00,,,0.00,WUHU216DAVISVP2,2013-02-06 07:01:00,
2013-02-06 02:06:00,27.9,20.7,29.92,WSW,250,5.0,7.0,74,0.00,,,0.00,WUHU216DAVISVP2,2013-02-06 07:06:00,
2013-02-06 02:11:00,28.0,20.8,29.92,SW,224,4.0,7.0,74,0.00,,,0.00,WUHU216DAVISVP2,2013-02-06 07:11:00,
2013-02-06 02:16:00,28.0,20.8,29.93,SW,236,3.0,7.0,74,0.00,,,0.00,WUHU216DAVISVP2,2013-02-06 07:16:00,
2013-02-06 02:21:00,28.0,20.8,29.92,WSW,247,2.0,6.0,74,0.00,,,0.00,WUHU216DAVISVP2,2013-02-06 07:21:00,
2013-02-06 02:26:00,28.1,20.9,29.93,WSW,247,4.0,6.0,74,0.00,,,0.00,WUHU216DAVISVP2,2013-02-06 07:26:00,
2013-02-06 02:31:00,28.1,20.9,29.93,SW,229,1.0,6.0,74,0.00,,,0.00,WUHU216DAVISVP2,2013-02-06 07:31:00,
2013-02-06 02:36:00,28.1,20.9,29.93,WSW,240,6.0,6.0,74,0.00,,,0.00,WUHU216DAVISVP2,2013-02-06 07:36:00,
2013-02-06 02:41:00,28.2,21.0,29.93,SW,233,2.0,9.0,74,0.00,,,0.00,WUHU216DAVISVP2,2013-02-06 07:41:00,
2013-02-06 02:46:00,28.3,20.8,29.93,WSW,250,4.0,9.0,73,0.00,,,0.00,WUHU216DAVISVP2,2013-02-06 07:46:00,
2013-02-06 02:51:00,28.3,21.1,29.93,WSW,256,3.0,8.0,74,0.00,,,0.00,WUHU216DAVISVP2,2013-02-06 07:51:00,
2013-02-06 02:56:00,28.4,21.2,29.93,WSW,245,1.0,7.0,74,0.00,,,0.00,WUHU216DAVISVP2,2013-02-06 07:56:00,
2013-02-06 03:01:00,28.5,21.3,29.93,SSW,210,1.0,9.0,74,0.00,,,0.00,WUHU216DAVISVP2,2013-02-06 08:01:00,
2013-02-06 03:06:00,28.6,21.4,29.93,West,264,3.0,9.0,74,0.00,,,0.00,WUHU216DAVISVP2,2013-02-06 08:06:00,
2013-02-06 03:11:00,28.7,21.5,29.93,West,280,3.0,11.0,74,0.00,,,0.00,WUHU216DAVISVP2,2013-02-06 08:11:00,
2013-02-06 03:16:00,28.8,21.6,29.94,WNW,288,7.0,11.0,74,0.00,,,0.00,WUHU216DAVISVP2,2013-02-06 08:16:00,
2013-02-06 03:21:00,28.8,21.6,29.94,WNW,300,4.0,12.0,74,0.00,,,0.00,WUHU216DAVISVP2,2013-02-06 08:21:00,
2013-02-06 03:26:00,28.8,21.9,29.94,NW,312,4.0,12.0,75,0.00,,,0.00,WUHU216DAVISVP2,2013-02-06 08:26:00,
2013-02-06 03:31:00,28.8,22.2,29.95,NW,308,3.0,12.0,76,0.00,,,0.00,WUHU216DAVISVP2,2013-02-06 08:31:00,
2013-02-06 03:36:00,28.8,22.2,29.95,West,267,3.0,13.0,76,0.00,,,0.00,WUHU216DAVISVP2,2013-02-06 08:36:00,
2013-02-06 03:41:00,28.8,22.2,29.95,NW,311,2.0,17.0,76,0.00,,,0.00,WUHU216DAVISVP2,2013-02-06 08:41:00,
2013-02-06 03:46:00,28.7,22.4,29.95,West,268,6.0,17.0,77,0.00,,,0.00,WUHU216DAVISVP2,2013-02-06 08:46:00,
2013-02-06 03:51:00,28.7,22.4,29.95,WNW,299,8.0,17.0,77,0.00,,,0.00,WUHU216DAVISVP2,2013-02-06 08:51:00,
2013-02-06 03:57:00,28.7,22.4,29.95,WNW,295,7.0,17.0,77,0.00,,,0.00,WUHU216DAVISVP2,2013-02-06 08:57:00,
2013-02-06 04:02:00,28.7,22.4,29.95,West,261,8.0,14.0,77,0.00,,,0.00,WUHU216DAVISVP2,2013-02-06 09:02:00,
2013-02-06 04:07:00,28.6,22.3,29.95,WNW,296,2.0,14.0,77,0.00,,,0.00,WUHU216DAVISVP2,2013-02-06 09:07:00,
2013-02-06 04:12:00,28.6,22.6,29.95,WNW,287,2.0,14.0,78,0.00,,,0.00,WUHU216DAVISVP2,2013-02-06 09:12:00,
2013-02-06 04:17:00,28.6,22.6,29.96,West,276,4.0,12.0,78,0.00,,,0.00,WUHU216DAVISVP2,2013-02-06 09:17:00,
2013-02-06 04:22:00,28.6,22.9,29.96,West,276,3.0,12.0,79,0.00,,,0.00,WUHU216DAVISVP2,2013-02-06 09:22:00,
2013-02-06 04:27:00,28.6,22.9,29.96,WNW,283,1.0,12.0,79,0.00,,,0.00,WUHU216DAVISVP2,2013-02-06 09:27:00,
2013-02-06 04:32:00,28.6,22.9,29.96,WNW,291,2.0,12.0,79,0.00,,,0.00,WUHU216DAVISVP2,2013-02-06 09:32:00,
2013-02-06 04:38:00,28.6,22.9,29.97,West,277,2.0,11.0,79,0.00,,,0.00,WUHU216DAVISVP2,2013-02-06 09:38:00,
2013-02-06 04:43:00,28.6,23.2,29.97,West,259,7.0,11.0,80,0.00,,,0.00,WUHU216DAVISVP2,2013-02-06 09:43:00,
2013-02-06 04:48:00,28.7,23.3,29.97,WNW,287,4.0,10.0,80,0.00,,,0.00,WUHU216DAVISVP2,2013-02-06 09:48:00,
2013-02-06 04:53:00,28.7,23.3,29.97,West,276,5.0,10.0,80,0.00,,,0.00,WUHU216DAVISVP2,2013-02-06 09:53:00,
2013-02-06 04:58:00,28.7,23.6,29.97,West,259,5.0,10.0,81,0.00,,,0.00,WUHU216DAVISVP2,2013-02-06 09:58:00,
2013-02-06 05:03:00,28.7,23.6,29.98,West,278,4.0,12.0,81,0.00,,,0.00,WUHU216DAVISVP2,2013-02-06 10:03:00,
2013-02-06 05:08:00,28.7,23.6,29.98,West,271,3.0,12.0,81,0.00,,,0.00,WUHU216DAVISVP2,2013-02-06 10:08:00,
2013-02-06 05:13:00,28.7,23.9,29.98,West,270,1.0,11.0,82,0.00,,,0.00,WUHU216DAVISVP2,2013-02-06 10:13:00,
2013-02-06 05:18:00,28.7,23.9,29.98,West,274,2.0,10.0,82,0.00,,,0.00,WUHU216DAVISVP2,2013-02-06 10:18:00,
2013-02-06 05:23:00,28.7,23.9,29.99,WSW,254,6.0,10.0,82,0.00,,,0.00,WUHU216DAVISVP2,2013-02-06 10:23:00,
2013-02-06 05:28:00,28.8,23.7,29.99,WSW,242,8.0,11.0,81,0.00,,,0.00,WUHU216DAVISVP2,2013-02-06 10:28:00,
2013-02-06 05:33:00,28.8,23.7,29.99,SW,236,3.0,11.0,81,0.00,,,0.00,WUHU216DAVISVP2,2013-02-06 10:33:00,
2013-02-06 05:38:00,28.8,24.0,29.99,West,259,6.0,10.0,82,0.00,,,0.00,WUHU216DAVISVP2,2013-02-06 10:38:00,
2013-02-06 05:43:00,28.8,24.0,29.99,South,179,2.0,10.0,82,0.00,,,0.00,WUHU216DAVISVP2,2013-02-06 10:43:00,
2013-02-06 05:48:00,28.8,24.3,29.99,West,259,4.0,10.0,83,0.00,,,0.00,WUHU216DAVISVP2,2013-02-06 10:48:00,
2013-02-06 05:53:00,28.8,24.3,30.00,West,270,3.0,10.0,83,0.00,,,0.00,WUHU216DAVISVP2,2013-02-06 10:53:00,
2013-02-06 05:58:00,28.7,24.7,30.00,West,262,4.0,10.0,85,0.00,,,0.00,WUHU216DAVISVP2,2013-02-06 10:58:00,
2013-02-06 06:03:00,28.5,24.8,30.00,NW,311,2.0,9.0,86,0.00,,,0.00,WUHU216DAVISVP2,2013-02-06 11:03:00,
2013-02-06 06:08:00,28.3,24.9,30.00,NW,308,4.0,11.0,87,0.00,,,0.00,WUHU216DAVISVP2,2013-02-06 11:08:00,
2013-02-06 06:13:00,28.2,25.1,30.00,WSW,250,4.0,11.0,88,0.00,,,0.00,WUHU216DAVISVP2,2013-02-06 11:13:00,
2013-02-06 06:18:00,28.1,25.2,30.01,SW,232,4.0,11.0,89,0.00,,,0.00,WUHU216DAVISVP2,2013-02-06 11:18:00,
2013-02-06 06:23:00,28.0,25.4,30.01,WSW,249,5.0,11.0,90,0.00,,,0.00,WUHU216DAVISVP2,2013-02-06 11:23:00,
2013-02-06 06:28:00,28.0,25.4,30.01,West,267,2.0,11.0,90,0.00,,,0.00,WUHU216DAVISVP2,2013-02-06 11:28:00,
2013-02-06 06:33:00,28.0,25.7,30.02,WSW,247,5.0,11.0,91,0.00,,,0.00,WUHU216DAVISVP2,2013-02-06 11:33:00,
2013-02-06 06:38:00,28.0,25.7,30.02,West,278,3.0,11.0,91,0.00,,,0.00,WUHU216DAVISVP2,2013-02-06 11:38:00,
2013-02-06 06:43:00,27.9,25.6,30.02,West,259,3.0,8.0,91,0.00,,,0.00,WUHU216DAVISVP2,2013-02-06 11:43:00,
2013-02-06 06:48:00,27.8,25.7,30.02,WNW,291,1.0,9.0,92,0.00,,,0.00,WUHU216DAVISVP2,2013-02-06 11:48:00,
2013-02-06 06:53:00,27.8,25.8,30.03,WSW,255,6.0,11.0,92,0.00,,,0.00,WUHU216DAVISVP2,2013-02-06 11:53:00,
2013-02-06 06:58:00,27.7,25.6,30.03,West,280,3.0,11.0,92,0.00,,,0.00,WUHU216DAVISVP2,2013-02-06 11:58:00,
2013-02-06 07:03:00,27.7,25.9,30.04,WNW,283,3.0,11.0,93,0.00,,,0.00,WUHU216DAVISVP2,2013-02-06 12:03:00,
2013-02-06 07:08:00,27.7,25.9,30.04,West,281,3.0,11.0,93,0.00,,,0.00,WUHU216DAVISVP2,2013-02-06 12:08:00,
2013-02-06 07:13:00,27.7,25.6,30.04,NW,319,3.0,10.0,92,0.00,,,0.00,WUHU216DAVISVP2,2013-02-06 12:13:00,
2013-02-06 07:18:00,27.7,25.6,30.04,WSW,257,5.0,10.0,92,0.00,,,0.00,WUHU216DAVISVP2,2013-02-06 12:18:00,
2013-02-06 07:23:00,27.7,25.4,30.05,West,266,5.0,10.0,91,0.00,,,0.00,WUHU216DAVISVP2,2013-02-06 12:23:00,
2013-02-06 07:29:00,27.8,25.5,30.04,WNW,296,3.0,9.0,91,0.00,,,0.00,WUHU216DAVISVP2,2013-02-06 12:29:00,
2013-02-06 07:34:00,27.9,25.3,30.04,WNW,295,5.0,11.0,90,0.00,,,0.00,WUHU216DAVISVP2,2013-02-06 12:34:00,
2013-02-06 07:39:00,27.9,25.0,30.05,WSW,245,2.0,11.0,89,0.00,,,0.00,WUHU216DAVISVP2,2013-02-06 12:39:00,
2013-02-06 07:44:00,28.0,24.6,30.05,WNW,284,4.0,11.0,87,0.00,,,0.00,WUHU216DAVISVP2,2013-02-06 12:44:00,
2013-02-06 07:49:00,28.1,24.4,30.06,West,270,5.0,12.0,86,0.00,,,0.00,WUHU216DAVISVP2,2013-02-06 12:49:00,
2013-02-06 07:54:00,28.2,24.0,30.06,WNW,302,2.0,12.0,84,0.00,,,0.00,WUHU216DAVISVP2,2013-02-06 12:54:00,
2013-02-06 07:59:00,28.2,23.7,30.07,NW,311,2.0,12.0,83,0.00,,,0.00,WUHU216DAVISVP2,2013-02-06 12:59:00,
2013-02-06 08:04:00,28.3,23.8,30.07,West,280,10.0,16.0,83,0.00,,,0.00,WUHU216DAVISVP2,2013-02-06 13:04:00,
2013-02-06 08:09:00,28.2,24.0,30.08,NW,309,7.0,16.0,84,0.00,,,0.00,WUHU216DAVISVP2,2013-02-06 13:09:00,
2013-02-06 08:14:00,28.1,23.9,30.08,WNW,283,6.0,16.0,84,0.00,,,0.00,WUHU216DAVISVP2,2013-02-06 13:14:00,
2013-02-06 08:19:00,28.1,24.1,30.08,WNW,291,4.0,16.0,85,0.00,,,0.00,WUHU216DAVISVP2,2013-02-06 13:19:00,
2013-02-06 08:24:00,27.9,24.5,30.09,West,270,8.0,13.0,87,0.00,,,0.00,WUHU216DAVISVP2,2013-02-06 13:24:00,
2013-02-06 08:29:00,27.6,24.5,30.10,WNW,300,3.0,12.0,88,0.00,,,0.00,WUHU216DAVISVP2,2013-02-06 13:29:00,
2013-02-06 08:34:00,27.2,24.6,30.10,WNW,285,5.0,15.0,90,0.00,,,0.00,WUHU216DAVISVP2,2013-02-06 13:34:00,
2013-02-06 08:39:00,26.9,24.6,30.10,West,278,4.0,15.0,91,0.00,,,0.00,WUHU216DAVISVP2,2013-02-06 13:39:00,
2013-02-06 08:44:00,26.7,24.6,30.11,WNW,295,6.0,15.0,92,0.00,,,0.00,WUHU216DAVISVP2,2013-02-06 13:44:00,
2013-02-06 08:49:00,26.6,24.5,30.11,West,276,5.0,15.0,92,0.00,,,0.00,WUHU216DAVISVP2,2013-02-06 13:49:00,
2013-02-06 08:54:00,26.5,24.7,30.12,NW,323,2.0,13.0,93,0.00,,,0.00,WUHU216DAVISVP2,2013-02-06 13:54:00,
2013-02-06 08:59:00,26.4,24.6,30.12,NNW,345,4.0,13.0,93,0.00,,,0.00,WUHU216DAVISVP2,2013-02-06 13:59:00,
2013-02-06 09:04:00,26.3,24.5,30.12,NW,317,2.0,11.0,93,0.00,,,0.00,WUHU216DAVISVP2,2013-02-06 14:04:00,
2013-02-06 09:09:00,26.3,24.2,30.12,NNW,328,2.0,13.0,92,0.00,,,0.00,WUHU216DAVISVP2,2013-02-06 14:09:00,
2013-02-06 09:14:00,26.3,24.2,30.13,WNW,285,7.0,13.0,92,0.00,,,0.00,WUHU216DAVISVP2,2013-02-06 14:14:00,
2013-02-06 09:19:00,26.4,23.0,30.13,West,260,8.0,14.0,87,0.00,,,0.00,WUHU216DAVISVP2,2013-02-06 14:19:00,
2013-02-06 09:24:00,26.7,21.9,30.13,NNW,340,4.0,15.0,82,0.00,,,0.00,WUHU216DAVISVP2,2013-02-06 14:24:00,
2013-02-06 09:29:00,26.9,21.0,30.13,West,277,6.0,15.0,78,0.00,,,0.00,WUHU216DAVISVP2,2013-02-06 14:29:00,
2013-02-06 09:34:00,27.1,20.3,30.14,WNW,288,15.0,18.0,75,0.00,,,0.00,WUHU216DAVISVP2,2013-02-06 14:34:00,
2013-02-06 09:39:00,27.1,19.6,30.14,NW,305,7.0,22.0,73,0.00,,,0.00,WUHU216DAVISVP2,2013-02-06 14:39:00,
2013-02-06 09:44:00,27.0,19.5,30.14,WNW,300,2.0,22.0,73,0.00,,,0.00,WUHU216DAVISVP2,2013-02-06 14:44:00,
2013-02-06 09:49:00,27.1,19.3,30.15,West,272,3.0,22.0,72,0.00,,,0.00,WUHU216DAVISVP2,2013-02-06 14:49:00,
2013-02-06 09:54:00,27.4,19.0,30.15,NNW,335,13.0,22.0,70,0.00,,,0.00,WUHU216DAVISVP2,2013-02-06 14:54:00,
2013-02-06 09:59:00,27.6,19.1,30.15,WNW,283,4.0,18.0,70,0.00,,,0.00,WUHU216DAVISVP2,2013-02-06 14:59:00,
2013-02-06 10:04:00,27.8,19.0,30.16,WNW,293,4.0,16.0,69,0.00,,,0.00,WUHU216DAVISVP2,2013-02-06 15:04:00,
2013-02-06 10:09:00,28.0,19.2,30.16,NE,41,13.0,25.0,69,0.00,,,0.00,WUHU216DAVISVP2,2013-02-06 15:09:00,
2013-02-06 10:14:00,27.9,19.0,30.16,NW,304,10.0,25.0,69,0.00,,,0.00,WUHU216DAVISVP2,2013-02-06 15:14:00,
2013-02-06 10:19:00,27.6,18.1,30.17,NW,311,7.0,25.0,67,0.00,,,0.00,WUHU216DAVISVP2,2013-02-06 15:19:00,
2013-02-06 10:24:00,27.5,18.0,30.17,NNW,330,8.0,25.0,67,0.00,,,0.00,WUHU216DAVISVP2,2013-02-06 15:24:00,
2013-02-06 10:29:00,27.5,18.4,30.17,NW,307,5.0,21.0,68,0.00,,,0.00,WUHU216DAVISVP2,2013-02-06 15:29:00,
2013-02-06 10:34:00,27.7,17.9,30.18,NNW,343,9.0,21.0,66,0.00,,,0.00,WUHU216DAVISVP2,2013-02-06 15:34:00,
2013-02-06 10:39:00,27.9,18.1,30.18,NNW,333,4.0,21.0,66,0.00,,,0.00,WUHU216DAVISVP2,2013-02-06 15:39:00,
2013-02-06 10:44:00,28.1,18.3,30.18,NW,317,7.0,16.0,66,0.00,,,0.00,WUHU216DAVISVP2,2013-02-06 15:44:00,
2013-02-06 10:49:00,28.1,18.3,30.19,West,259,13.0,18.0,66,0.00,,,0.00,WUHU216DAVISVP2,2013-02-06 15:49:00,
2013-02-06 10:54:00,28.0,18.2,30.19,WSW,243,6.0,18.0,66,0.00,,,0.00,WUHU216DAVISVP2,2013-02-06 15:54:00,
2013-02-06 10:59:00,28.2,18.4,30.19,NNW,334,8.0,19.0,66,0.00,,,0.00,WUHU216DAVISVP2,2013-02-06 15:59:00,
2013-02-06 11:04:00,27.9,19.4,30.19,NW,322,15.0,20.0,70,0.00,,,0.00,WUHU216DAVISVP2,2013-02-06 16:04:00,
2013-02-06 11:09:00,26.7,20.5,30.20,NNW,328,12.0,20.0,77,0.00,,,0.00,WUHU216DAVISVP2,2013-02-06 16:09:00,
2013-02-06 11:14:00,26.4,21.1,30.20,West,278,2.0,20.0,80,0.00,,,0.00,WUHU216DAVISVP2,2013-02-06 16:14:00,
2013-02-06 11:19:00,26.6,21.3,30.20,NNW,336,6.0,19.0,80,0.00,,,0.00,WUHU216DAVISVP2,2013-02-06 16:19:00,
2013-02-06 11:24:00,26.1,19.6,30.20,West,281,8.0,24.0,76,0.00,,,0.00,WUHU216DAVISVP2,2013-02-06 16:24:00,
2013-02-06 11:29:00,25.8,19.9,30.21,NW,321,10.0,24.0,78,0.00,,,0.00,WUHU216DAVISVP2,2013-02-06 16:29:00,
2013-02-06 11:34:00,25.8,20.2,30.21,NNW,331,5.0,24.0,79,0.00,,,0.00,WUHU216DAVISVP2,2013-02-06 16:34:00,
2013-02-06 11:39:00,25.9,19.4,30.21,NW,307,4.0,24.0,76,0.00,,,0.00,WUHU216DAVISVP2,2013-02-06 16:39:00,
2013-02-06 11:44:00,26.2,19.7,30.21,NW,308,8.0,20.0,76,0.00,,,0.00,WUHU216DAVISVP2,2013-02-06 16:44:00,
2013-02-06 11:49:00,26.5,19.4,30.21,NW,321,12.0,19.0,74,0.00,,,0.00,WUHU216DAVISVP2,2013-02-06 16:49:00,
2013-02-06 11:54:00,26.8,19.0,30.21,NW,308,10.0,19.0,72,0.00,,,0.00,WUHU216DAVISVP2,2013-02-06 16:54:00,
2013-02-06 11:59:00,27.0,18.6,30.21,NW,325,13.0,15.0,70,0.00,,,0.00,WUHU216DAVISVP2,2013-02-06 16:59:00,
2013-02-06 12:04:00,26.9,17.8,30.21,NNW,341,10.0,15.0,68,0.00,,,0.00,WUHU216DAVISVP2,2013-02-06 17:04:00,
2013-02-06 12:09:00,26.5,17.1,30.22,NNW,340,10.0,22.0,67,0.00,,,0.00,WUHU216DAVISVP2,2013-02-06 17:09:00,
2013-02-06 12:14:00,26.3,17.2,30.22,NNE,13,6.0,22.0,68,0.00,,,0.00,WUHU216DAVISVP2,2013-02-06 17:14:00,
2013-02-06 12:19:00,26.1,17.0,30.22,WNW,296,11.0,22.0,68,0.00,,,0.00,WUHU216DAVISVP2,2013-02-06 17:19:00,
2013-02-06 12:24:00,26.2,17.1,30.22,North,354,5.0,22.0,68,0.00,,,0.00,WUHU216DAVISVP2,2013-02-06 17:24:00,
2013-02-06 12:29:00,26.2,17.1,30.23,NNW,329,14.0,22.0,68,0.00,,,0.00,WUHU216DAVISVP2,2013-02-06 17:29:00,
2013-02-06 12:34:00,25.9,17.2,30.23,NW,321,9.0,22.0,69,0.00,,,0.00,WUHU216DAVISVP2,2013-02-06 17:34:00,
2013-02-06 12:39:00,25.6,17.2,30.23,NNW,339,13.0,21.0,70,0.00,,,0.00,WUHU216DAVISVP2,2013-02-06 17:39:00,
2013-02-06 12:44:00,25.4,16.7,30.24,NNE,25,6.0,24.0,69,0.00,,,0.00,WUHU216DAVISVP2,2013-02-06 17:44:00,
2013-02-06 12:49:00,25.3,16.9,30.24,WSW,243,5.0,24.0,70,0.00,,,0.00,WUHU216DAVISVP2,2013-02-06 17:49:00,
2013-02-06 12:54:00,25.7,17.0,30.24,ENE,68,6.0,23.0,69,0.00,,,0.00,WUHU216DAVISVP2,2013-02-06 17:54:00,
2013-02-06 12:59:00,25.9,16.5,30.24,WNW,293,8.0,23.0,67,0.00,,,0.00,WUHU216DAVISVP2,2013-02-06 17:59:00,
2013-02-06 13:04:00,26.5,16.7,30.24,NNW,333,7.0,18.0,66,0.00,,,0.00,WUHU216DAVISVP2,2013-02-06 18:04:00,
2013-02-06 13:09:00,26.9,16.7,30.24,NNW,348,7.0,18.0,65,0.00,,,0.00,WUHU216DAVISVP2,2013-02-06 18:09:00,
2013-02-06 13:14:00,26.8,15.9,30.24,North,8,7.0,15.0,63,0.00,,,0.00,WUHU216DAVISVP2,2013-02-06 18:14:00,
2013-02-06 13:19:00,26.4,15.2,30.24,North,349,12.0,17.0,62,0.00,,,0.00,WUHU216DAVISVP2,2013-02-06 18:19:00,
2013-02-06 13:24:00,26.6,16.1,30.24,NNW,335,9.0,17.0,64,0.00,,,0.00,WUHU216DAVISVP2,2013-02-06 18:24:00,
2013-02-06 13:29:00,26.4,14.8,30.25,NNW,334,5.0,17.0,61,0.00,,,0.00,WUHU216DAVISVP2,2013-02-06 18:29:00,
2013-02-06 13:34:00,26.5,14.5,30.25,NNE,18,5.0,17.0,60,0.00,,,0.00,WUHU216DAVISVP2,2013-02-06 18:34:00,
2013-02-06 13:39:00,26.3,14.3,30.25,WNW,297,9.0,18.0,60,0.00,,,0.00,WUHU216DAVISVP2,2013-02-06 18:39:00,
2013-02-06 13:44:00,26.3,14.3,30.25,NW,322,7.0,18.0,60,0.00,,,0.00,WUHU216DAVISVP2,2013-02-06 18:44:00,
2013-02-06 13:49:00,26.2,13.8,30.25,NW,312,5.0,20.0,59,0.00,,,0.00,WUHU216DAVISVP2,2013-02-06 18:49:00,
2013-02-06 13:54:00,26.4,13.6,30.26,NNW,340,9.0,20.0,58,0.00,,,0.00,WUHU216DAVISVP2,2013-02-06 18:54:00,
2013-02-06 13:59:00,26.5,13.3,30.26,NNW,335,12.0,19.0,57,0.00,,,0.00,WUHU216DAVISVP2,2013-02-06 18:59:00,
2013-02-06 14:04:00,26.2,13.0,30.26,South,169,4.0,19.0,57,0.00,,,0.00,WUHU216DAVISVP2,2013-02-06 19:04:00,
2013-02-06 14:09:00,26.2,13.0,30.26,North,5,9.0,15.0,57,0.00,,,0.00,WUHU216DAVISVP2,2013-02-06 19:09:00,
2013-02-06 14:14:00,26.0,12.4,30.27,NNE,13,5.0,14.0,56,0.00,,,0.00,WUHU216DAVISVP2,2013-02-06 19:14:00,
2013-02-06 14:19:00,26.3,12.3,30.27,North,8,5.0,14.0,55,0.00,,,0.00,WUHU216DAVISVP2,2013-02-06 19:19:00,
2013-02-06 14:24:00,26.3,11.9,30.27,NW,326,4.0,14.0,54,0.00,,,0.00,WUHU216DAVISVP2,2013-02-06 19:24:00,
2013-02-06 14:29:00,26.5,12.1,30.27,North,352,8.0,14.0,54,0.00,,,0.00,WUHU216DAVISVP2,2013-02-06 19:29:00,
2013-02-06 14:34:00,26.5,11.6,30.27,NNW,335,3.0,13.0,53,0.00,,,0.00,WUHU216DAVISVP2,2013-02-06 19:34:00,
2013-02-06 14:39:00,26.6,10.8,30.27,NNE,25,3.0,14.0,51,0.00,,,0.00,WUHU216DAVISVP2,2013-02-06 19:39:00,
2013-02-06 14:44:00,26.3,10.1,30.27,NW,311,8.0,15.0,50,0.00,,,0.00,WUHU216DAVISVP2,2013-02-06 19:44:00,
2013-02-06 14:49:00,26.3,10.1,30.28,NNW,333,11.0,15.0,50,0.00,,,0.00,WUHU216DAVISVP2,2013-02-06 19:49:00,
2013-02-06 14:54:00,26.1,10.8,30.28,NNW,331,6.0,15.0,52,0.00,,,0.00,WUHU216DAVISVP2,2013-02-06 19:54:00,
2013-02-06 14:59:00,26.2,10.0,30.28,NNW,333,11.0,15.0,50,0.00,,,0.00,WUHU216DAVISVP2,2013-02-06 19:59:00,
2013-02-06 15:04:00,26.1,9.9,30.28,NW,318,7.0,15.0,50,0.00,,,0.00,WUHU216DAVISVP2,2013-02-06 20:04:00,
2013-02-06 15:09:00,26.4,9.7,30.28,WNW,302,2.0,15.0,49,0.00,,,0.00,WUHU216DAVISVP2,2013-02-06 20:09:00,
2013-02-06 15:14:00,26.4,9.3,30.29,WNW,302,4.0,14.0,48,0.00,,,0.00,WUHU216DAVISVP2,2013-02-06 20:14:00,
2013-02-06 15:19:00,26.5,9.8,30.29,NW,309,6.0,12.0,49,0.00,,,0.00,WUHU216DAVISVP2,2013-02-06 20:19:00,
2013-02-06 15:24:00,26.9,10.2,30.30,NNE,30,2.0,12.0,49,0.00,,,0.00,WUHU216DAVISVP2,2013-02-06 20:24:00,
2013-02-06 15:29:00,26.6,9.4,30.30,WNW,293,13.0,15.0,48,0.00,,,0.00,WUHU216DAVISVP2,2013-02-06 20:29:00,
2013-02-06 15:34:00,26.6,9.4,30.30,NW,316,5.0,15.0,48,0.00,,,0.00,WUHU216DAVISVP2,2013-02-06 20:34:00,
2013-02-06 15:39:00,26.2,9.1,30.30,North,358,5.0,14.0,48,0.00,,,0.00,WUHU216DAVISVP2,2013-02-06 20:39:00,
2013-02-06 15:44:00,26.1,8.5,30.30,NNW,331,3.0,14.0,47,0.00,,,0.00,WUHU216DAVISVP2,2013-02-06 20:44:00,
2013-02-06 15:49:00,26.1,9.5,30.30,NNE,30,4.0,14.0,49,0.00,,,0.00,WUHU216DAVISVP2,2013-02-06 20:49:00,
2013-02-06 15:54:00,25.9,9.3,30.31,North,354,7.0,14.0,49,0.00,,,0.00,WUHU216DAVISVP2,2013-02-06 20:54:00,
2013-02-06 15:59:00,25.8,9.2,30.30,North,5,3.0,12.0,49,0.00,,,0.00,WUHU216DAVISVP2,2013-02-06 20:59:00,
2013-02-06 16:04:00,25.6,9.0,30.31,NNW,346,6.0,13.0,49,0.00,,,0.00,WUHU216DAVISVP2,2013-02-06 21:04:00,
2013-02-06 16:09:00,25.5,8.4,30.31,NNE,16,6.0,13.0,48,0.00,,,0.00,WUHU216DAVISVP2,2013-02-06 21:09:00,
2013-02-06 16:14:00,25.4,9.3,30.31,NNW,336,3.0,13.0,50,0.00,,,0.00,WUHU216DAVISVP2,2013-02-06 21:14:00,
2013-02-06 16:19:00,25.5,9.0,30.31,NW,307,9.0,12.0,49,0.00,,,0.00,WUHU216DAVISVP2,2013-02-06 21:19:00,
2013-02-06 16:24:00,25.4,8.8,30.31,WNW,301,2.0,12.0,49,0.00,,,0.00,WUHU216DAVISVP2,2013-02-06 21:24:00,
2013-02-06 16:29:00,25.4,9.7,30.32,NW,312,4.0,10.0,51,0.00,,,0.00,WUHU216DAVISVP2,2013-02-06 21:29:00,
2013-02-06 16:34:00,25.1,9.5,30.32,North,358,6.0,10.0,51,0.00,,,0.00,WUHU216DAVISVP2,2013-02-06 21:34:00,
2013-02-06 16:39:00,25.0,9.4,30.32,North,355,1.0,8.0,51,0.00,,,0.00,WUHU216DAVISVP2,2013-02-06 21:39:00,
2013-02-06 16:44:00,25.0,9.4,30.32,NW,319,3.0,8.0,51,0.00,,,0.00,WUHU216DAVISVP2,2013-02-06 21:44:00,
2013-02-06 16:49:00,24.9,9.3,30.32,North,11,2.0,8.0,51,0.00,,,0.00,WUHU216DAVISVP2,2013-02-06 21:49:00,
2013-02-06 16:54:00,24.7,9.5,30.32,NE,37,4.0,9.0,52,0.00,,,0.00,WUHU216DAVISVP2,2013-02-06 21:54:00,
2013-02-06 16:59:00,24.3,9.6,30.32,NNE,12,4.0,9.0,53,0.00,,,0.00,WUHU216DAVISVP2,2013-02-06 21:59:00,
2013-02-06 17:04:00,24.2,9.5,30.32,NNW,333,1.0,8.0,53,0.00,,,0.00,WUHU216DAVISVP2,2013-02-06 22:04:00,
2013-02-06 17:09:00,23.9,9.6,30.32,West,267,2.0,8.0,54,0.00,,,0.00,WUHU216DAVISVP2,2013-02-06 22:09:00,
2013-02-06 17:14:00,23.6,9.4,30.32,NNW,331,8.0,9.0,54,0.00,,,0.00,WUHU216DAVISVP2,2013-02-06 22:14:00,
2013-02-06 17:19:00,23.3,9.9,30.33,West,279,1.0,9.0,56,0.00,,,0.00,WUHU216DAVISVP2,2013-02-06 22:19:00,
2013-02-06 17:24:00,23.1,9.7,30.33,NW,315,3.0,9.0,56,0.00,,,0.00,WUHU216DAVISVP2,2013-02-06 22:24:00,
2013-02-06 17:29:00,22.9,9.9,30.33,NNE,23,2.0,9.0,57,0.00,,,0.00,WUHU216DAVISVP2,2013-02-06 22:29:00,
2013-02-06 17:34:00,22.7,10.2,30.33,NNW,340,1.0,7.0,58,0.00,,,0.00,WUHU216DAVISVP2,2013-02-06 22:34:00,
2013-02-06 17:39:00,22.4,9.9,30.33,NNW,333,2.0,7.0,58,0.00,,,0.00,WUHU216DAVISVP2,2013-02-06 22:39:00,
2013-02-06 17:44:00,22.3,10.1,30.33,North,358,1.0,5.0,59,0.00,,,0.00,WUHU216DAVISVP2,2013-02-06 22:44:00,
2013-02-06 17:49:00,22.0,10.2,30.34,NW,315,3.0,5.0,60,0.00,,,0.00,WUHU216DAVISVP2,2013-02-06 22:49:00,
2013-02-06 17:54:00,21.9,10.1,30.34,NNW,331,0.0,5.0,60,0.00,,,0.00,WUHU216DAVISVP2,2013-02-06 22:54:00,
2013-02-06 17:59:00,21.7,10.0,30.34,North,350,1.0,4.0,60,0.00,,,0.00,WUHU216DAVISVP2,2013-02-06 22:59:00,
2013-02-06 18:04:00,21.6,10.3,30.35,NNW,328,1.0,4.0,61,0.00,,,0.00,WUHU216DAVISVP2,2013-02-06 23:04:00,
2013-02-06 18:09:00,21.5,10.5,30.34,NNW,330,2.0,4.0,62,0.00,,,0.00,WUHU216DAVISVP2,2013-02-06 23:09:00,
2013-02-06 18:14:00,21.3,10.3,30.35,NNW,342,1.0,3.0,62,0.00,,,0.00,WUHU216DAVISVP2,2013-02-06 23:14:00,
2013-02-06 18:19:00,21.1,10.5,30.35,NNW,345,1.0,3.0,63,0.00,,,0.00,WUHU216DAVISVP2,2013-02-06 23:19:00,
2013-02-06 18:24:00,21.0,10.4,30.35,NNW,335,1.0,3.0,63,0.00,,,0.00,WUHU216DAVISVP2,2013-02-06 23:24:00,
2013-02-06 18:29:00,20.9,10.6,30.35,North,6,1.0,3.0,64,0.00,,,0.00,WUHU216DAVISVP2,2013-02-06 23:29:00,
2013-02-06 18:34:00,20.7,10.5,30.35,North,358,0.0,3.0,64,0.00,,,0.00,WUHU216DAVISVP2,2013-02-06 23:34:00,
2013-02-06 18:39:00,20.5,10.7,30.35,North,351,0.0,3.0,65,0.00,,,0.00,WUHU216DAVISVP2,2013-02-06 23:39:00,
2013-02-06 18:44:00,20.5,10.6,30.36,North,353,1.0,3.0,65,0.00,,,0.00,WUHU216DAVISVP2,2013-02-06 23:44:00,
2013-02-06 18:49:00,20.4,10.8,30.36,North,358,2.0,3.0,66,0.00,,,0.00,WUHU216DAVISVP2,2013-02-06 23:49:00,
2013-02-06 18:54:00,20.2,10.7,30.36,NW,323,1.0,3.0,66,0.00,,,0.00,WUHU216DAVISVP2,2013-02-06 23:54:00,
2013-02-06 18:59:00,20.1,10.9,30.36,NNW,340,1.0,3.0,67,0.00,,,0.00,WUHU216DAVISVP2,2013-02-06 23:59:00,
2013-02-06 19:04:00,20.0,10.9,30.36,NW,319,0.0,2.0,67,0.00,,,0.00,WUHU216DAVISVP2,2013-02-07 00:04:00,
2013-02-06 19:09:00,19.9,10.8,30.37,NNW,333,0.0,2.0,67,0.00,,,0.00,WUHU216DAVISVP2,2013-02-07 00:09:00,
2013-02-06 19:14:00,19.8,11.0,30.37,NNW,330,0.0,2.0,68,0.00,,,0.00,WUHU216DAVISVP2,2013-02-07 00:14:00,
2013-02-06 19:19:00,19.8,11.0,30.37,NNW,330,0.0,2.0,68,0.00,,,0.00,WUHU216DAVISVP2,2013-02-07 00:19:00,
2013-02-06 19:24:00,19.6,10.8,30.37,NNW,330,0.0,1.0,68,0.00,,,0.00,WUHU216DAVISVP2,2013-02-07 00:24:00,
2013-02-06 19:29:00,19.4,10.9,30.38,NNW,330,0.0,1.0,69,0.00,,,0.00,WUHU216DAVISVP2,2013-02-07 00:29:00,
2013-02-06 19:34:00,19.3,10.8,30.38,NNW,330,0.0,1.0,69,0.00,,,0.00,WUHU216DAVISVP2,2013-02-07 00:34:00,
2013-02-06 19:39:00,19.2,10.7,30.38,NNW,330,0.0,1.0,69,0.00,,,0.00,WUHU216DAVISVP2,2013-02-07 00:39:00,
2013-02-06 19:44:00,19.2,11.1,30.38,NNW,330,0.0,1.0,70,0.00,,,0.00,WUHU216DAVISVP2,2013-02-07 00:44:00,
2013-02-06 19:49:00,19.2,11.1,30.38,NNW,328,0.0,1.0,70,0.00,,,0.00,WUHU216DAVISVP2,2013-02-07 00:49:00,
2013-02-06 19:54:00,19.2,11.1,30.39,NW,322,0.0,1.0,70,0.00,,,0.00,WUHU216DAVISVP2,2013-02-07 00:54:00,
2013-02-06 19:59:00,19.1,11.3,30.39,NW,321,0.0,1.0,71,0.00,,,0.00,WUHU216DAVISVP2,2013-02-07 00:59:00,
2013-02-06 20:04:00,19.0,10.9,30.39,WNW,297,1.0,1.0,70,0.00,,,0.00,WUHU216DAVISVP2,2013-02-07 01:04:00,
2013-02-06 20:09:00,19.1,11.3,30.40,WNW,290,1.0,2.0,71,0.00,,,0.00,WUHU216DAVISVP2,2013-02-07 01:09:00,
2013-02-06 20:14:00,19.0,11.2,30.40,WNW,289,0.0,2.0,71,0.00,,,0.00,WUHU216DAVISVP2,2013-02-07 01:14:00,
2013-02-06 20:19:00,18.9,11.4,30.40,WNW,301,0.0,2.0,72,0.00,,,0.00,WUHU216DAVISVP2,2013-02-07 01:19:00,
2013-02-06 20:24:00,18.9,11.4,30.40,WNW,301,0.0,2.0,72,0.00,,,0.00,WUHU216DAVISVP2,2013-02-07 01:24:00,
2013-02-06 20:29:00,19.0,11.5,30.41,WNW,294,2.0,2.0,72,0.00,,,0.00,WUHU216DAVISVP2,2013-02-07 01:29:00,
2013-02-06 20:34:00,19.2,11.6,30.40,WNW,291,1.0,3.0,72,0.00,,,0.00,WUHU216DAVISVP2,2013-02-07 01:34:00,
2013-02-06 20:39:00,19.3,11.8,30.41,NW,304,0.0,3.0,72,0.00,,,0.00,WUHU216DAVISVP2,2013-02-07 01:39:00,
2013-02-06 20:44:00,19.4,11.9,30.41,West,275,0.0,3.0,72,0.00,,,0.00,WUHU216DAVISVP2,2013-02-07 01:44:00,
2013-02-06 20:49:00,19.5,12.0,30.41,WNW,301,0.0,3.0,72,0.00,,,0.00,WUHU216DAVISVP2,2013-02-07 01:49:00,
2013-02-06 20:54:00,19.6,12.1,30.41,WNW,302,0.0,3.0,72,0.00,,,0.00,WUHU216DAVISVP2,2013-02-07 01:54:00,
2013-02-06 20:59:00,19.6,12.1,30.41,WNW,297,2.0,3.0,72,0.00,,,0.00,WUHU216DAVISVP2,2013-02-07 01:59:00,
2013-02-06 21:04:00,19.6,12.1,30.42,WNW,291,2.0,4.0,72,0.00,,,0.00,WUHU216DAVISVP2,2013-02-07 02:04:00,
2013-02-06 21:09:00,19.5,12.0,30.42,NNW,347,1.0,4.0,72,0.00,,,0.00,WUHU216DAVISVP2,2013-02-07 02:09:00,
2013-02-06 21:14:00,19.3,12.1,30.41,NNE,25,0.0,4.0,73,0.00,,,0.00,WUHU216DAVISVP2,2013-02-07 02:14:00,
2013-02-06 21:19:00,19.2,11.7,30.41,NNE,19,0.0,4.0,72,0.00,,,0.00,WUHU216DAVISVP2,2013-02-07 02:19:00,
2013-02-06 21:24:00,19.0,11.5,30.42,NNE,19,0.0,2.0,72,0.00,,,0.00,WUHU216DAVISVP2,2013-02-07 02:24:00,
2013-02-06 21:29:00,18.7,11.2,30.41,NNE,19,0.0,1.0,72,0.00,,,0.00,WUHU216DAVISVP2,2013-02-07 02:29:00,
2013-02-06 21:34:00,18.2,11.0,30.42,NNE,19,0.0,1.0,73,0.00,,,0.00,WUHU216DAVISVP2,2013-02-07 02:34:00,
2013-02-06 21:39:00,17.8,11.2,30.41,NNE,18,0.0,0.0,75,0.00,,,0.00,WUHU216DAVISVP2,2013-02-07 02:39:00,
2013-02-06 21:44:00,17.7,11.4,30.42,NNE,19,0.0,0.0,76,0.00,,,0.00,WUHU216DAVISVP2,2013-02-07 02:44:00,
2013-02-06 21:49:00,17.7,11.4,30.42,NNE,18,0.0,0.0,76,0.00,,,0.00,WUHU216DAVISVP2,2013-02-07 02:49:00,
2013-02-06 21:54:00,17.8,11.5,30.42,NW,315,0.0,1.0,76,0.00,,,0.00,WUHU216DAVISVP2,2013-02-07 02:54:00,
2013-02-06 22:00:00,18.0,11.7,30.42,NW,315,0.0,1.0,76,0.00,,,0.00,WUHU216DAVISVP2,2013-02-07 03:00:00,
2013-02-06 22:06:00,17.9,11.6,30.42,NW,315,0.0,1.0,76,0.00,,,0.00,WUHU216DAVISVP2,2013-02-07 03:06:00,
2013-02-06 22:11:00,17.8,11.5,30.42,NW,315,0.0,1.0,76,0.00,,,0.00,WUHU216DAVISVP2,2013-02-07 03:11:00,
2013-02-06 22:16:00,17.6,11.6,30.42,NW,315,0.0,0.0,77,0.00,,,0.00,WUHU216DAVISVP2,2013-02-07 03:16:00,
2013-02-06 22:21:00,17.3,11.3,30.41,NW,314,0.0,0.0,77,0.00,,,0.00,WUHU216DAVISVP2,2013-02-07 03:21:00,
2013-02-06 22:26:00,17.0,11.3,30.41,NW,315,0.0,0.0,78,0.00,,,0.00,WUHU216DAVISVP2,2013-02-07 03:26:00,
2013-02-06 22:31:00,16.8,11.4,30.41,NW,315,0.0,0.0,79,0.00,,,0.00,WUHU216DAVISVP2,2013-02-07 03:31:00,
2013-02-06 22:36:00,16.8,11.7,30.41,NW,315,0.0,0.0,80,0.00,,,0.00,WUHU216DAVISVP2,2013-02-07 03:36:00,
2013-02-06 22:41:00,16.8,12.2,30.41,WNW,292,1.0,1.0,82,0.00,,,0.00,WUHU216DAVISVP2,2013-02-07 03:41:00,
2013-02-06 22:46:00,17.1,12.3,30.42,WSW,257,0.0,1.0,81,0.00,,,0.00,WUHU216DAVISVP2,2013-02-07 03:46:00,
2013-02-06 22:51:00,17.3,12.5,30.42,WSW,257,0.0,1.0,81,0.00,,,0.00,WUHU216DAVISVP2,2013-02-07 03:51:00,
2013-02-06 22:56:00,17.4,12.3,30.42,WSW,257,0.0,1.0,80,0.00,,,0.00,WUHU216DAVISVP2,2013-02-07 03:56:00,
2013-02-06 23:01:00,17.4,12.0,30.41,WSW,257,0.0,1.0,79,0.00,,,0.00,WUHU216DAVISVP2,2013-02-07 04:01:00,
2013-02-06 23:06:00,17.5,12.1,30.42,NW,308,0.0,1.0,79,0.00,,,0.00,WUHU216DAVISVP2,2013-02-07 04:06:00,
2013-02-06 23:11:00,17.5,11.8,30.42,NW,309,0.0,1.0,78,0.00,,,0.00,WUHU216DAVISVP2,2013-02-07 04:11:00,
2013-02-06 23:16:00,17.6,11.9,30.42,WNW,290,0.0,1.0,78,0.00,,,0.00,WUHU216DAVISVP2,2013-02-07 04:16:00,
2013-02-06 23:21:00,17.5,11.8,30.42,WNW,290,0.0,1.0,78,0.00,,,0.00,WUHU216DAVISVP2,2013-02-07 04:21:00,
2013-02-06 23:26:00,17.4,11.7,30.42,WNW,290,0.0,1.0,78,0.00,,,0.00,WUHU216DAVISVP2,2013-02-07 04:26:00,
2013-02-06 23:31:00,17.1,11.7,30.42,WNW,290,0.0,1.0,79,0.00,,,0.00,WUHU216DAVISVP2,2013-02-07 04:31:00,
2013-02-06 23:36:00,17.0,11.9,30.42,WNW,290,0.0,0.0,80,0.00,,,0.00,WUHU216DAVISVP2,2013-02-07 04:36:00,
2013-02-06 23:41:00,16.7,11.6,30.42,WNW,290,0.0,0.0,80,0.00,,,0.00,WUHU216DAVISVP2,2013-02-07 04:41:00,
2013-02-06 23:46:00,16.7,11.6,30.42,WNW,289,0.0,0.0,80,0.00,,,0.00,WUHU216DAVISVP2,2013-02-07 04:46:00,
2013-02-06 23:51:00,16.7,11.9,30.42,WNW,289,0.0,0.0,81,0.00,,,0.00,WUHU216DAVISVP2,2013-02-07 04:51:00,
2013-02-06 23:56:00,16.9,11.8,30.42,NNE,26,0.0,1.0,80,0.00,,,0.00,WUHU216DAVISVP2,2013-02-07 04:56:00,